[[{"header":{"parameterUnit":"m.s-1","parameterCategory":1,"la1":30.2991,"la2":30.254,"lo1":-89.0895,"lo2":-89.0444,"dy":0.0017,"dx":0.0017,"nx":28,"ny":28,"refTime":"2025-12-14T09:00:00:Z","depth":0,"parameterNumber":2,"parameterNumberName":"U-component_of_WINDS"},"data":[0,0,0,0,0,0,0,0,0,0,0,0,0,0,0,0,0,0,0,0,0,0,0,0,0,0,0,0,0,0,0,0,0,0,0,0,0,0,0,0,0,0,0,0,0,0,0,0,0,0,0,0,0,0,0,0,0,0,-3.2898,-3.2899,0,-3.2931,-3.2932,-3.2932,-3.2845,-3.2842,-3.284,-3.2837,-3.2873,-3.2877,-3.288,0,0,0,0,0,0,0,0,0,0,0,0,0,-3.2761,-3.2764,-3.2898,-3.2899,-3.2899,-3.2931,-3.2932,-3.2932,-3.2846,-3.2842,-3.2839,-3.2836,-3.2872,-3.2876,-3.288,0,0,0,0,0,0,0,0,0,0,0,0,0,-3.281,-3.2765,-3.2898,-3.286,-3.2856,-3.2931,-3.2932,-3.2932,-3.2846,-3.2842,-3.2838,-3.2834,-3.2871,-3.2876,-3.2881,-3.2995,0,0,-3.2897,-3.2899,0,0,0,0,0,0,0,0,-3.2808,-3.2815,-3.2865,-3.2862,-3.2859,-3.288,-3.2897,-3.2953,-3.2847,-3.285,-3.2837,-3.2832,-3.2879,-3.2883,-3.2898,-3.2997,-3.2998,-3.2897,-3.2901,-3.2903,-3.2904,0,0,0,0,0,0,0,-3.2804,-3.2814,-3.2911,-3.2866,-3.2862,-3.2841,-3.2844,-3.2907,-3.2887,-3.285,-3.2843,-3.2848,-3.2876,-3.2894,-3.2899,-3.2999,-3.2897,-3.2902,-3.2905,-3.2907,-3.3193,-3.3198,0,0,0,0,0,0,-3.2806,-3.2811,-3.291,-3.2912,-3.2823,-3.2847,-3.285,-3.2877,-3.2886,-3.2884,-3.2852,-3.2844,-3.2887,-3.2893,-3.29,-3.3035,-3.2903,-3.2908,-3.2911,-3.3189,-3.3194,-3.3199,0,0,0,0,0,0,-3.2803,-3.2815,-3.2909,-3.286,-3.287,-3.2854,-3.2885,-3.288,-3.2897,-3.2888,-3.2884,-3.2873,-3.2884,-3.2892,-3.2972,-3.3035,-3.291,-3.2915,-3.3184,-3.3191,-3.3197,-3.3306,0,0,0,0,0,0,-3.28,-3.2815,-3.2858,-3.2862,-3.2873,-3.2981,-3.2889,-3.2884,-3.2906,-3.2897,-3.2907,-3.2904,-3.2881,-3.2965,-3.2977,-3.304,-3.2919,-3.3178,-3.3187,-3.3195,-3.3297,-3.3315,-3.3332,0,0,0,0,0,-3.2795,-3.2887,-3.286,-3.2873,-3.2927,-3.2985,-3.2991,-3.2962,-3.2912,-3.2955,-3.2949,-3.2904,-3.3025,-3.2974,-3.2987,-3.3052,-3.3174,-3.3184,-3.3194,-3.3289,-3.3312,-3.3331,0,0,0,0,0,0,-3.2892,-3.2887,-3.2857,-3.2954,-3.297,-3.297,-3.3023,-3.2987,-3.3019,-3.3009,-3.2971,-3.2974,-3.3062,-3.3064,-3.3007,-3.3163,-3.3091,-3.3104,-3.3159,-3.318,-3.3198,-3.3196,-3.2923,0,0,0,0,0,-3.2924,-3.2971,-3.2965,-3.305,-3.306,-3.3041,-3.3065,-3.3041,-3.3057,-3.3063,-3.3063,-3.3081,-3.3123,-3.3151,-3.3189,-3.3296,-3.3298,-3.3347,-3.3365,-3.3379,-3.3392,-3.3449,-3.3472,-3.3232,-3.3232,-3.3232,0,0,-3.2992,-3.2995,-3.3028,-3.307,-3.308,-3.313,-3.3047,-3.3104,-3.3141,-3.3072,-3.3148,-3.3148,-3.3165,-3.3259,-3.3301,-3.3264,-3.3458,-3.3392,-3.3403,-3.3408,-3.3462,-3.3485,-3.3505,-3.3239,-3.3238,-3.3237,0,0,-3.3142,-3.3149,-3.3221,-3.3233,-3.3249,-3.3235,-3.3253,-3.3258,-3.3255,-3.333,-3.328,-3.3324,-3.3397,-3.3411,-3.3428,-3.3584,-3.3544,-3.3597,-3.3689,-3.3746,-3.3764,-3.3781,-3.3838,-3.3858,-3.3609,-3.3609,-3.3609,0,-3.3225,-3.3298,-3.3263,-3.3324,-3.3344,-3.3283,-3.3357,-3.337,-3.3398,-3.3414,-3.3373,-3.3463,-3.347,-3.3568,-3.3606,-3.3621,-3.3641,-3.3597,-3.3764,-3.3781,-3.3796,-3.3849,-3.3871,-3.3616,-3.3615,-3.3614,-3.3614,0,-3.34,-3.3451,-3.3508,-3.3536,-3.3563,-3.363,-3.3606,-3.3637,-3.3611,-3.3602,-3.3679,-3.3686,-3.3724,-3.3745,-3.372,-3.3839,-3.3816,-3.377,-3.3697,-3.3826,-3.3876,-3.3896,-3.3625,-3.3623,-3.3621,-3.3619,0,0,-3.3613,-3.362,-3.3642,-3.3654,-3.3667,-3.3707,-3.3771,-3.3808,-3.3837,-3.3858,-3.3911,-3.3974,-3.3932,-3.3951,-3.3927,-3.3976,-3.4101,-3.3924,-3.3924,-3.3958,-3.4234,-3.427,-3.4294,-3.4074,-3.4077,-3.408,-3.4233,0,-3.3762,-3.3871,-3.3842,-3.3952,-3.4,-3.3942,-3.3998,-3.4013,-3.4006,-3.4046,-3.4038,-3.4084,-3.4024,-3.4035,-3.4081,-3.4076,-3.4156,-3.4064,-3.4125,-3.4127,-3.4124,-3.432,-3.4358,-3.4502,-3.4252,-3.4255,-3.4258,0,-3.395,-3.3979,-3.4093,-3.4099,-3.4118,-3.4169,-3.4201,-3.4239,-3.4254,-3.4246,-3.4268,-3.4234,-3.4298,-3.4223,-3.4311,-3.425,-3.4272,-3.4273,-3.4278,-3.4284,-3.4202,-3.4333,-3.4547,-3.4569,-3.4288,-3.4285,-3.4283,0,-3.4096,-3.4163,-3.424,-3.4252,-3.426,-3.4298,-3.4303,-3.4314,-3.4338,-3.4366,-3.4382,-3.4417,-3.4437,-3.4466,-3.4442,-3.439,-3.4535,-3.4458,-3.4531,-3.4532,-3.4566,-3.4564,-3.4788,-3.4578,-3.4577,-3.4577,-3.4577,0,-3.4267,-3.434,-3.4306,-3.4354,-3.4434,-3.4399,-3.448,-3.4478,-3.4489,-3.4536,-3.4488,-3.4533,-3.4499,-3.4541,-3.4523,-3.46,-3.4609,-3.4605,-3.4599,-3.461,-3.4611,-3.4626,-3.4616,-3.4583,-3.4581,-3.458,-3.4579,0,-3.4444,-3.4424,-3.4505,-3.4506,-3.4508,-3.4567,-3.4568,-3.4612,-3.4601,-3.4662,-3.4674,-3.4658,-3.4705,-3.4684,-3.4734,-3.4722,-3.4821,-3.4801,-3.4816,-3.4812,-3.4886,-3.488,-3.5129,-3.516,-3.4929,-3.4931,-3.4933,0,-3.4555,-3.461,-3.4616,-3.4644,-3.4653,-3.4698,-3.4723,-3.4691,-3.4718,-3.474,-3.4783,-3.4826,-3.4859,-3.4938,-3.4931,-3.4969,-3.4951,-3.5035,-3.4957,-3.4966,-3.4954,-3.4952,-3.4958,-3.5052,-3.5055,-3.5057,-3.5059,0,-3.4755,-3.4742,-3.4779,-3.4814,-3.4844,-3.487,-3.4891,-3.4917,-3.4886,-3.4919,-3.4967,-3.4993,-3.5044,-3.5088,-3.5122,-3.5127,-3.5089,-3.5083,-3.5102,-3.5115,-3.5122,-3.5121,-3.4861,-3.5078,-3.5076,-3.5075,-3.5074,-3.5073,-3.4903,-3.495,-3.4962,-3.5005,-3.5017,-3.5039,-3.5081,-3.5075,-3.5114,-3.5153,-3.5132,-3.5188,-3.5202,-3.5243,-3.5254,-3.5298,-3.5265,-3.5292,-3.5299,-3.5307,-3.5318,-3.5113,-3.5304,-3.5303,-3.5303,-3.5302,-3.5302,0,-3.5102,-3.5107,-3.5147,-3.5178,-3.5212,-3.5171,-3.5193,-3.5225,-3.5275,-3.5291,-3.5324,-3.538,-3.5422,-3.5418,-3.5457,-3.5493,-3.5477,-3.5505,-3.5503,-3.5505,-3.5344,-3.5325,-3.5518,-3.5518,-3.5518,-3.5517,-3.5517,-3.5517,-3.5209,-3.5286,-3.5275,-3.5357,-3.5361,-3.5416,-3.5432,-3.5451,-3.5464,-3.5528,-3.5563,-3.556,-3.5568,-3.5607,-3.5645,-3.5642,-3.566,-3.5695,-3.5687,-3.5537,-3.5516,-3.5496,-3.5477,-3.5699,-3.5699,-3.5843,-3.5845,-3.5846]},{"header":{"parameterUnit":"m.s-1","parameterCategory":1,"la1":30.2991,"la2":30.254,"lo1":-89.0895,"lo2":-89.0444,"dy":0.0017,"dx":0.0017,"nx":28,"ny":28,"refTime":"2025-12-14T09:00:00:Z","depth":0,"parameterNumber":3,"parameterNumberName":"V-component_of_WINDS"},"data":[0,0,0,0,0,0,0,0,0,0,0,0,0,0,0,0,0,0,0,0,0,0,0,0,0,0,0,0,0,0,0,0,0,0,0,0,0,0,0,0,0,0,0,0,0,0,0,0,0,0,0,0,0,0,0,0,0,0,-3.7675,-3.7675,0,-3.7668,-3.7668,-3.7668,-3.7629,-3.7629,-3.7628,-3.7627,-3.762,-3.762,-3.7621,0,0,0,0,0,0,0,0,0,0,0,0,0,-3.7654,-3.7655,-3.7675,-3.7675,-3.7674,-3.7668,-3.7668,-3.7668,-3.763,-3.7629,-3.7627,-3.7626,-3.7619,-3.762,-3.7621,0,0,0,0,0,0,0,0,0,0,0,0,0,-3.7657,-3.7655,-3.7675,-3.7655,-3.7653,-3.7668,-3.7668,-3.7667,-3.763,-3.7628,-3.7627,-3.7626,-3.7619,-3.762,-3.7621,-3.7655,0,0,-3.7624,-3.7625,0,0,0,0,0,0,0,0,-3.7657,-3.7657,-3.7658,-3.7656,-3.7654,-3.7648,-3.7658,-3.7663,-3.763,-3.7639,-3.7627,-3.7625,-3.763,-3.763,-3.7632,-3.7654,-3.7654,-3.7624,-3.7625,-3.7625,-3.7626,0,0,0,0,0,0,0,-3.7656,-3.7658,-3.7672,-3.7658,-3.7656,-3.7646,-3.7645,-3.7659,-3.7642,-3.7638,-3.7635,-3.7635,-3.7629,-3.7631,-3.7631,-3.7654,-3.7624,-3.7625,-3.7626,-3.7626,-3.7702,-3.7703,0,0,0,0,0,0,-3.7659,-3.7658,-3.7672,-3.7672,-3.7652,-3.7647,-3.7646,-3.7651,-3.7642,-3.7639,-3.7636,-3.7633,-3.763,-3.763,-3.7631,-3.7669,-3.7625,-3.7626,-3.7627,-3.77,-3.7702,-3.7704,0,0,0,0,0,0,-3.7659,-3.7661,-3.7672,-3.7664,-3.7665,-3.7649,-3.7655,-3.7652,-3.7654,-3.764,-3.7637,-3.7641,-3.7629,-3.763,-3.7649,-3.7668,-3.7627,-3.7628,-3.7699,-3.7701,-3.7703,-3.7745,0,0,0,0,0,0,-3.7658,-3.7661,-3.7674,-3.7664,-3.7665,-3.7691,-3.7657,-3.7653,-3.7656,-3.7652,-3.7645,-3.7642,-3.7628,-3.7647,-3.765,-3.7668,-3.7628,-3.7697,-3.77,-3.7702,-3.7741,-3.7748,-3.7753,0,0,0,0,0,-3.7658,-3.7686,-3.7675,-3.7677,-3.7681,-3.7692,-3.7692,-3.7675,-3.7658,-3.767,-3.7661,-3.7642,-3.7666,-3.765,-3.7652,-3.7671,-3.7696,-3.7699,-3.7702,-3.7739,-3.7747,-3.7753,0,0,0,0,0,0,-3.7698,-3.7685,-3.7672,-3.7698,-3.7696,-3.7685,-3.7701,-3.7684,-3.7688,-3.7684,-3.7663,-3.7662,-3.7684,-3.7679,-3.7662,-3.7702,-3.7677,-3.7681,-3.7704,-3.7712,-3.7718,-3.7718,-3.7629,0,0,0,0,0,-3.771,-3.772,-3.7708,-3.7732,-3.7732,-3.7716,-3.772,-3.7708,-3.7705,-3.7704,-3.7697,-3.7695,-3.7702,-3.7707,-3.7712,-3.7741,-3.7738,-3.7755,-3.7761,-3.7766,-3.7769,-3.7783,-3.779,-3.7714,-3.7714,-3.7714,0,0,-3.7735,-3.7729,-3.7737,-3.774,-3.7737,-3.7747,-3.7716,-3.7729,-3.7736,-3.7706,-3.7723,-3.7718,-3.7714,-3.7738,-3.7748,-3.7735,-3.779,-3.777,-3.7774,-3.7775,-3.7787,-3.7794,-3.7801,-3.7716,-3.7716,-3.7716,0,0,-3.7786,-3.7782,-3.7801,-3.7799,-3.7795,-3.7784,-3.7789,-3.778,-3.7775,-3.7792,-3.777,-3.7778,-3.7791,-3.7789,-3.7789,-3.7838,-3.782,-3.784,-3.7871,-3.7885,-3.7891,-3.7896,-3.7912,-3.7919,-3.7844,-3.7844,-3.7844,0,-3.7817,-3.7832,-3.7813,-3.7827,-3.7829,-3.7802,-3.7821,-3.7819,-3.7818,-3.7819,-3.7805,-3.7819,-3.7815,-3.7837,-3.7849,-3.785,-3.7854,-3.7841,-3.7891,-3.7896,-3.7901,-3.7916,-3.7923,-3.7846,-3.7846,-3.7846,-3.7845,0,-3.787,-3.7881,-3.7897,-3.7895,-3.7898,-3.7915,-3.7898,-3.7904,-3.7891,-3.7882,-3.7899,-3.7893,-3.7896,-3.79,-3.7888,-3.7921,-3.7912,-3.7895,-3.7869,-3.7911,-3.7925,-3.7931,-3.785,-3.7849,-3.7848,-3.7847,0,0,-3.7946,-3.7933,-3.7939,-3.7938,-3.7931,-3.7938,-3.7953,-3.7956,-3.7961,-3.7961,-3.7972,-3.7982,-3.7966,-3.7967,-3.7954,-3.7966,-3.8003,-3.7946,-3.7946,-3.7956,-3.8038,-3.805,-3.8057,-3.7992,-3.7993,-3.7993,-3.8038,0,-3.7993,-3.8018,-3.8001,-3.8028,-3.8037,-3.8011,-3.8024,-3.8021,-3.8012,-3.8018,-3.8009,-3.8017,-3.7995,-3.7995,-3.8006,-3.7996,-3.8019,-3.7993,-3.8001,-3.8002,-3.8002,-3.8065,-3.8078,-3.812,-3.8043,-3.8044,-3.8045,0,-3.8052,-3.8053,-3.8081,-3.8071,-3.8074,-3.8086,-3.8087,-3.8093,-3.8089,-3.8082,-3.8082,-3.8066,-3.8079,-3.8054,-3.8071,-3.8054,-3.8056,-3.8052,-3.8053,-3.8053,-3.8025,-3.8065,-3.8133,-3.8139,-3.8053,-3.8053,-3.8052,0,-3.8104,-3.8112,-3.813,-3.8129,-3.8119,-3.8127,-3.8123,-3.8117,-3.812,-3.8121,-3.8122,-3.8124,-3.8125,-3.8127,-3.8112,-3.8095,-3.8131,-3.8105,-3.8125,-3.8125,-3.8133,-3.8133,-3.8202,-3.8136,-3.8136,-3.8136,-3.8136,0,-3.8158,-3.8176,-3.8152,-3.8163,-3.8182,-3.8162,-3.8181,-3.8175,-3.817,-3.8178,-3.8156,-3.8165,-3.8144,-3.815,-3.8138,-3.8153,-3.8154,-3.8148,-3.8145,-3.815,-3.8151,-3.8151,-3.8147,-3.8137,-3.8137,-3.8137,-3.8136,0,-3.8218,-3.8204,-3.8221,-3.8209,-3.8206,-3.822,-3.821,-3.8219,-3.8209,-3.822,-3.8221,-3.8206,-3.8212,-3.8196,-3.82,-3.8192,-3.8214,-3.8206,-3.8215,-3.8213,-3.8233,-3.8231,-3.8304,-3.8312,-3.8242,-3.8243,-3.8244,0,-3.8253,-3.8266,-3.8256,-3.8259,-3.8256,-3.8263,-3.8265,-3.8247,-3.825,-3.8245,-3.8255,-3.8259,-3.8261,-3.8271,-3.826,-3.8263,-3.8254,-3.8279,-3.8254,-3.8259,-3.8253,-3.8252,-3.8253,-3.8284,-3.8285,-3.8286,-3.8287,0,-3.8317,-3.8309,-3.8313,-3.8314,-3.8317,-3.8317,-3.8316,-3.832,-3.83,-3.8304,-3.831,-3.8312,-3.8315,-3.8319,-3.8319,-3.8314,-3.8297,-3.8295,-3.8299,-3.8304,-3.8309,-3.8305,-3.8229,-3.8293,-3.8292,-3.8292,-3.8291,-3.8291,-3.8365,-3.8375,-3.8369,-3.8373,-3.837,-3.8369,-3.8376,-3.8367,-3.8371,-3.8372,-3.8361,-3.8369,-3.8363,-3.8361,-3.8358,-3.8364,-3.8352,-3.8359,-3.8361,-3.8362,-3.8365,-3.8308,-3.8364,-3.8364,-3.8363,-3.8363,-3.8363,0,-3.8427,-3.8421,-3.8426,-3.8424,-3.8428,-3.8411,-3.8408,-3.8412,-3.8419,-3.8415,-3.8418,-3.8423,-3.8427,-3.8416,-3.8418,-3.8424,-3.8416,-3.8425,-3.8424,-3.8423,-3.8376,-3.8372,-3.8431,-3.8431,-3.8431,-3.8431,-3.8431,-3.8431,-3.8459,-3.8474,-3.8465,-3.8478,-3.8473,-3.848,-3.8479,-3.8478,-3.8475,-3.8482,-3.8485,-3.8477,-3.847,-3.8471,-3.8474,-3.847,-3.8471,-3.8483,-3.8477,-3.8433,-3.8426,-3.842,-3.8416,-3.8484,-3.8484,-3.8523,-3.8523,-3.8524]}]]